Location: Gorovani
(41.8825°N, 44.6683°E)
Time: 02:59:04
(UTC+00:00)

Daily predictions for brighter satellites

Satellite Brightness Start Highest point End
(mag) Time Altitude Azimuth Time Altitude Azimuth Time Altitude Azimuth
FALCON 9 DEB 3.5 00:03:25 10° WNW 00:06:37 40° SW 00:09:48 10° SSE
IDEFIX/ARIANE 42P 2.6 00:01:47 10° N 00:07:00 69° WNW 00:11:29 14° SSW
COSMOS 2406 4.3 00:02:31 10° S 00:07:44 40° ESE 00:12:59 10° NE
Cosmos 2315 Rocket 4.3 00:13:19 10° N 00:19:32 73° E 00:25:43 10° SSE
DELTA 2 R/B (1) 3.6 00:18:48 10° W 00:24:17 65° S 00:29:47 10° ESE
Cosmos 1656 3.9 00:19:20 10° NNW 00:25:04 79° ENE 00:30:45 10° SSE
CZ-2D R/B 3.7 00:22:27 10° NNE 00:26:38 70° ESE 00:30:40 10° S
USA 281 3.3 00:22:03 10° S 00:28:31 61° WSW 00:35:02 10° NNW
IRS-1C 4.2 00:24:52 10° N 00:30:09 65° WNW 00:35:25 10° SSW
deb Kosmos-1763 3.9 00:27:05 12° SSW 00:30:21 75° WNW 00:33:53 10° NNE
SL-08 R/B 3.3 00:27:28 10° SSE 00:32:07 83° WSW 00:36:53 10° NNW
S3M 4.3 00:27:39 10° NNW 00:33:31 47° W 00:39:24 10° SSW
X-37B 0.6 00:31:51 10° WNW 00:35:00 63° SSW 00:38:08 10° ESE
Cosmos 1697 Rocket 3.8 00:30:41 10° NNW 00:36:12 51° ENE 00:41:42 10° SE
CZ-2C R/B 3.0 00:31:45 10° NNE 00:36:38 57° E 00:41:19 10° S
Delta 2 Rocket 4.2 00:33:22 11° SW 00:36:38 28° S 00:39:51 10° ESE
Cosmos 1812 3.1 00:33:07 10° NNW 00:36:47 44° W 00:40:26 10° SSW
MSX 4.1 00:31:29 10° N 00:37:06 55° WNW 00:42:39 10° SSW
NOSS 3-4 (A) 4.4 00:34:02 10° S 00:39:23 41° ESE 00:45:02 10° NE
NOSS 3-4 (C) 4.4 00:34:11 10° S 00:39:31 40° ESE 00:45:08 10° NE
CZ-2C R/B 3.8 00:36:24 10° NNE 00:40:08 46° E 00:43:45 10° S
Cosmos 1782 4.4 00:40:08 10° NW 00:42:56 18° W 00:45:44 10° SW
Cosmos 2084 Rocket 3.2 00:39:14 10° SW 00:43:09 87° NW 00:47:09 10° NE
CZ-2C R/B 3.3 00:44:01 10° SSE 00:44:25 10° SSE 00:44:50 10° SSE
Cosmos 1271 Rocket 3.9 00:42:27 10° NW 00:45:31 24° W 00:48:35 10° SSW
GPS 2-04 Rocket1 3.6 00:42:10 10° WSW 00:45:35 28° S 00:48:52 10° SE
FALCON 9 DEB 2.8 00:43:37 10° NW 00:46:45 82° SW 00:49:51 10° SE
NOSS 3-2 (A) 4.2 00:39:26 10° NW 00:47:09 87° WSW 00:55:50 10° SSE
CZ-4C R/B 4.5 00:45:04 10° SW 00:47:40 20° W 00:50:17 10° NW
Cosmos 773 Rocket 4.1 00:44:05 10° SSW 00:49:21 73° WNW 00:54:40 10° NNE
ATLAS 2AS CENTAUR R/B 4.4 00:43:34 10° S 00:50:26 34° ESE 00:57:16 10° NE
Cosmos 1500 Rocket 3.6 00:48:24 10° SSW 00:52:41 64° W 00:56:59 10° N
ATLAS 5 CENTAUR R/B 3.9 00:51:37 10° NW 00:53:17 12° NNW 00:55:00 10° N
SeaSat 1 3.3 00:51:29 10° N 00:56:00 37° NW 01:00:30 10° WSW
Meteor 1-10 Rocket 4.5 00:50:47 10° NNW 00:56:31 57° W 01:02:06 10° S
